Wind_Speed
52 52 52 51 50 48 46 44 42 39 38 38 38 38 38 37 36 35 33 31 29 28 26 24 24 23 22 21 21 20 20 21 21 21 21 21 22 22 22 22 21 22 21 19 17 17 17 17 17 16 17 18 17 17 17 17 17 16 15 14 14 14 12 12 13 13 13 13 13 14 15 15 16 16 17 17 17 17 17 17 17 18 18 19 19 19
51 51 50 48 46 45 44 43 42 41 40 40 40 40 39 38 37 35 33 31 29 27 26 24 23 22 22 22 22 21 21 22 22 22 22 23 23 23 24 24 23 24 23 21 19 18 18 18 17 17 18 18 18 18 19 19 18 18 16 16 16 14 13 13 13 13 13 14 13 14 15 16 16 17 18 18 18 19 19 19 19 19 20 20 21 22
52 51 48 47 46 45 45 45 44 43 42 42 42 41 40 39 37 35 33 31 30 28 26 25 23 23 24 24 23 22 22 23 23 23 24 24 24 25 25 25 25 25 25 23 21 19 18 18 18 19 20 20 20 20 20 20 20 19 18 18 17 15 14 14 14 14 15 14 14 15 16 17 18 19 20 20 20 21 21 21 21 21 22 22 23 24
52 50 48 47 46 46 46 45 45 44 44 43 43 42 41 39 37 36 34 32 31 29 27 26 24 25 26 26 25 24 23 24 24 24 25 25 25 26 26 26 27 27 27 25 22 20 19 19 20 21 22 22 22 21 21 21 21 21 20 20 19 17 16 16 17 17 17 16 16 17 17 18 19 20 21 22 23 23 23 23 24 24 24 25 26 27
49 47 47 46 45 46 46 46 45 45 45 44 43 43 41 39 38 36 35 33 32 30 29 27 27 27 27 27 26 25 24 23 24 25 25 25 26 27 27 27 28 29 28 27 25 22 21 21 21 22 23 23 23 22 22 22 22 22 22 22 21 19 19 19 19 19 19 18 18 19 19 19 20 21 22 23 24 25 25 26 26 27 27 28 29 30
47 46 45 45 45 46 46 46 45 45 45 44 44 43 41 40 39 37 36 34 33 32 30 29 29 28 27 27 27 26 25 24 24 25 25 26 27 28 28 28 29 30 29 28 26 25 24 23 23 23 24 24 24 23 23 24 24 24 24 23 23 22 22 21 21 21 20 20 20 21 21 21 22 23 24 25 25 26 26 27 28 28 29 30 31 32
47 47 47 47 46 47 47 46 46 46 45 44 44 42 41 40 39 38 37 36 35 34 32 30 30 28 27 27 27 26 26 25 24 25 25 26 27 28 29 30 30 31 30 29 28 27 26 25 24 24 24 25 25 25 24 24 25 25 25 25 25 25 25 24 23 23 22 23 23 23 24 24 24 25 26 27 27 28 28 29 30 31 31 32 33 34
48 47 48 48 48 48 48 47 46 45 45 44 43 42 41 41 40 40 39 37 36 34 33 31 30 30 28 27 28 27 27 26 25 25 25 26 27 28 30 31 31 31 31 30 29 28 28 27 27 25 25 26 26 26 25 25 26 26 26 26 26 27 27 26 26 26 26 26 26 26 26 27 28 28 29 30 30 31 32 32 33 34 34 35 36 37
47 47 47 46 47 47 47 46 45 44 44 44 43 43 43 42 42 41 40 39 37 36 34 32 31 31 29 27 28 28 27 27 25 25 25 25 26 28 29 31 31 32 31 31 30 30 29 28 28 27 27 26 27 27 27 27 27 28 28 28 28 29 29 29 29 29 29 29 29 29 29 30 31 31 32 32 33 34 34 35 36 37 38 39 39 40
46 46 46 46 46 46 45 45 45 45 45 45 44 44 43 43 43 42 40 39 38 37 35 33 31 32 30 27 28 29 28 27 26 25 26 26 26 27 28 30 31 32 31 31 31 30 30 29 28 28 28 27 28 28 28 29 29 29 30 30 30 31 31 31 32 32 32 32 32 32 32 33 33 34 34 35 36 37 37 38 39 40 41 42 42 43
47 46 47 47 47 47 47 47 47 46 46 46 46 45 44 44 43 42 41 40 39 39 36 33 32 32 31 28 27 29 28 27 26 26 27 27 27 27 28 29 30 31 32 31 31 31 30 30 29 29 29 29 29 30 30 30 30 31 32 32 33 33 33 34 34 34 35 35 35 35 35 35 36 36 37 38 39 40 40 41 42 43 43 44 45 45
49 49 49 49 49 49 49 48 48 48 48 47 47 46 45 45 44 43 42 41 41 39 36 33 32 32 32 29 27 28 28 28 28 28 27 27 27 27 28 29 30 31 32 32 32 31 31 30 30 30 30 31 31 31 31 31 32 33 33 34 35 35 36 36 37 37 37 37 37 37 38 38 39 40 41 41 42 43 43 44 44 45 45 46 47 47
51 51 51 51 51 50 50 49 50 50 49 48 47 46 45 45 44 43 42 41 40 39 35 33 33 33 32 30 29 29 28 28 29 29 29 28 28 28 28 29 30 31 31 32 32 32 32 31 31 31 31 32 32 32 32 33 33 34 35 36 36 37 38 38 39 39 39 39 40 40 41 42 42 43 43 44 44 44 44 45 46 46 47 48 49 49
51 51 52 51 51 51 50 49 49 49 48 47 46 45 43 43 42 41 41 40 39 38 35 33 34 34 32 31 31 30 28 28 29 29 29 29 29 29 29 30 30 31 31 32 32 32 32 32 32 32 32 32 33 33 34 34 35 35 36 37 38 38 39 39 40 40 41 41 42 43 43 44 44 44 45 45 45 46 46 47 48 48 49 50 50 51
48 49 49 49 49 48 48 47 46 45 44 44 43 42 42 41 41 41 40 39 38 37 36 35 35 35 33 32 32 31 30 29 29 29 29 30 30 31 31 31 31 31 31 32 32 33 33 33 33 33 33 33 33 34 34 35 36 36 37 38 38 39 39 40 40 41 41 42 43 43 44 45 45 46 46 46 47 47 48 48 49 50 50 51 52 53
47 47 46 46 45 45 44 44 43 43 44 44 43 42 42 42 42 41 40 39 38 38 38 37 36 35 34 33 33 32 31 30 30 29 29 29 30 31 32 32 32 32 32 33 33 34 34 34 34 33 33 33 34 34 35 36 37 37 38 38 39 39 39 40 40 40 41 42 43 44 45 45 46 46 47 47 48 48 49 50 51 52 53 53 54 55
47 46 45 45 45 44 44 44 44 44 44 44 44 43 41 41 40 40 40 40 39 39 40 39 37 36 35 35 34 32 31 31 30 29 28 28 29 30 31 32 33 34 34 34 34 34 34 35 35 35 35 35 35 36 37 38 38 39 39 39 40 39 39 39 39 40 41 42 43 44 45 46 46 47 48 48 49 50 51 51 52 53 54 54 55 56
45 44 44 44 43 43 43 42 43 43 43 42 42 40 39 39 40 40 40 41 41 42 42 40 38 36 36 35 34 33 32 31 31 30 29 28 28 29 31 33 34 34 35 35 35 35 35 36 36 36 36 37 37 38 39 40 40 41 41 41 41 40 40 40 41 42 43 44 45 45 46 47 47 48 49 49 50 51 51 52 53 53 54 55 55 56
45 44 44 44 43 42 42 42 42 42 42 41 41 39 39 39 40 40 40 41 41 41 41 40 39 38 37 35 34 34 33 32 32 31 30 29 28 29 30 32 33 34 35 35 36 36 37 37 37 38 38 39 40 40 41 42 42 42 42 42 42 42 41 42 43 43 44 45 46 46 47 47 48 48 49 49 50 51 52 53 54 55 55 56 56 57
46 46 46 45 44 43 43 43 44 43 42 42 41 41 41 41 40 40 40 40 40 40 41 41 41 40 37 35 36 36 35 35 34 33 32 31 30 30 30 31 33 34 35 35 35 36 36 37 38 39 39 40 41 41 42 42 42 42 43 42 42 42 42 43 44 44 45 46 46 47 47 48 48 49 50 51 52 53 53 55 55 56 57 57 58 58
47 47 47 46 45 45 45 44 43 42 42 41 41 40 40 40 40 40 40 40 41 41 42 43 44 41 37 35 35 36 36 36 35 34 34 34 33 33 32 32 33 34 35 35 35 35 35 36 36 37 38 39 39 40 41 41 42 42 42 42 42 42 42 43 44 45 46 46 47 47 48 49 50 51 52 53 53 54 55 56 56 57 58 59 59 60
48 47 47 48 47 45 45 44 42 41 41 40 40 40 39 38 38 39 40 41 42 43 44 44 45 42 38 36 36 36 36 36 35 35 35 35 35 35 34 34 34 34 35 36 37 36 36 36 36 37 37 38 39 39 40 41 41 41 42 42 42 43 44 45 46 47 47 48 48 49 50 51 52 53 54 54 55 55 56 57 58 59 60 61 62 63
45 45 45 46 46 45 44 43 43 42 41 41 41 40 40 40 41 41 42 43 43 44 44 44 45 43 39 38 38 37 37 36 36 36 35 35 35 35 35 35 35 35 36 37 38 38 38 38 38 39 39 39 40 41 41 42 42 43 44 44 45 46 47 47 48 49 49 50 50 51 52 53 54 55 56 56 57 57 58 59 60 61 63 64 65 65
44 44 44 44 44 45 45 44 43 43 42 43 42 42 42 43 43 43 43 42 42 43 42 42 45 44 40 39 39 39 39 38 37 37 36 36 36 36 36 36 37 37 38 38 38 39 40 40 41 41 42 43 43 44 44 45 46 46 47 48 48 49 50 50 51 51 52 53 54 55 56 57 57 58 59 59 60 60 61 62 63 64 65 66 67 67
45 46 46 46 46 46 46 47 47 46 46 46 46 45 45 44 43 43 42 41 42 42 40 41 43 42 39 40 41 41 41 41 40 40 39 38 38 38 38 39 39 40 40 41 41 41 42 43 43 44 45 46 46 47 48 48 49 50 50 51 51 51 52 52 53 54 55 56 57 57 58 59 59 60 61 62 63 63 64 64 65 65 66 66 67 67
47 48 48 48 49 49 50 50 50 49 47 48 47 45 44 43 42 41 41 41 41 41 41 42 43 41 39 41 43 42 42 42 41 41 41 40 41 41 42 42 43 43 44 44 44 45 45 46 46 47 47 48 49 49 50 50 51 51 52 53 53 54 55 55 56 56 57 58 58 59 60 61 61 62 63 64 64 64 65 65 65 65 65 65 65 65
51 52 51 50 51 51 50 49 48 46 45 45 44 43 42 41 41 41 42 43 42 41 43 43 41 40 40 42 44 44 43 42 42 43 43 44 45 45 46 46 46 46 47 47 47 47 48 48 49 49 49 50 51 51 51 52 52 53 54 55 56 56 57 57 58 58 59 60 61 62 62 63 63 64 64 64 64 64 64 64 63 63 63 63 63 63
54 55 55 54 53 53 52 50 49 49 48 47 46 46 45 45 45 45 46 45 43 45 48 46 42 43 44 45 45 46 45 45 46 46 47 48 48 48 48 48 48 48 48 49 49 49 49 50 50 51 52 53 54 54 54 54 55 56 57 57 58 59 59 59 60 61 62 63 63 64 64 64 64 64 64 63 63 63 62 62 62 62 62 62 62 62
58 58 57 56 55 54 54 54 53 53 52 52 51 50 49 49 49 49 48 47 46 48 49 47 45 46 47 46 46 48 48 48 49 49 50 51 51 50 50 50 50 51 50 51 51 52 52 52 53 53 54 56 57 58 58 58 57 58 59 60 61 62 62 63 63 64 64 64 64 64 64 63 63 63 62 62 62 61 61 61 61 60 60 60 60 61
61 60 59 58 58 57 57 56 56 56 56 55 55 54 53 52 51 51 50 48 49 51 50 49 49 49 47 47 47 49 50 50 51 52 53 53 53 53 52 53 53 53 53 53 54 54 55 55 56 56 57 58 59 61 61 61 61 61 62 62 63 63 64 64 64 64 64 64 64 64 63 63 62 62 61 61 60 60 59 59 59 59 59 59 59 60
63 62 61 60 60 61 61 60 59 59 59 59 58 57 56 56 55 54 53 52 53 53 51 51 52 50 48 48 49 50 52 52 53 54 55 56 56 55 55 55 55 56 57 57 57 57 57 58 58 59 60 60 61 62 63 64 64 64 64 64 64 64 64 64 64 64 64 63 63 62 62 62 62 62 61 61 60 59 59 59 60 60 61 61 62 62
61 62 63 63 63 64 62 62 62 62 62 63 63 61 59 58 57 56 55 54 54 54 52 54 54 51 49 49 50 51 53 54 55 56 56 57 58 57 57 58 58 59 60 60 60 60 60 60 61 61 61 61 62 62 63 64 65 65 65 65 65 65 65 64 64 63 63 63 62 62 62 62 62 61 61 61 61 61 62 63 64 64 64 65 65 65
58 59 60 62 65 65 64 64 64 64 67 68 65 61 59 59 58 58 58 57 56 55 56 57 55 51 51 51 51 52 53 54 55 55 56 57 58 59 60 60 60 61 61 61 61 62 62 62 62 62 63 63 64 64 65 65 65 65 65 65 64 64 64 63 63 63 63 63 63 63 62 62 61 61 61 62 63 64 65 66 66 66 66 66 65 65
58 58 58 59 61 62 63 64 64 66 69 68 63 60 60 61 61 61 61 59 57 57 58 58 56 55 55 55 53 53 53 54 55 56 57 59 60 61 61 61 62 62 62 62 62 63 63 63 64 65 65 65 65 65 65 65 64 64 64 64 64 63 63 63 63 63 63 63 63 62 62 61 61 62 63 65 66 67 68 68 68 67 67 66 66 67
58 58 58 58 59 60 60 61 63 66 66 63 60 59 59 60 59 60 60 59 58 58 58 58 57 56 55 55 54 55 56 56 57 58 59 60 60 61 62 62 62 62 63 63 64 64 65 65 66 66 66 66 65 65 65 65 64 64 63 63 62 62 63 63 63 64 63 63 62 62 61 62 63 66 67 69 69 70 70 69 69 69 69 69 70 70
57 57 58 58 59 60 60 62 64 63 60 58 57 57 56 57 57 58 59 58 57 57 57 56 54 52 53 53 54 56 57 58 59 59 59 60 61 61 62 62 63 63 64 64 65 65 65 65 65 65 65 65 65 65 65 64 63 63 62 62 62 62 63 63 63 64 63 63 63 63 64 66 68 70 71 72 71 71 71 72 72 72 73 73 73 74
57 57 57 58 59 60 61 62 62 61 59 58 57 55 55 56 56 56 58 57 55 54 55 54 52 52 53 54 55 57 58 59 60 59 59 60 61 61 61 62 62 63 63 63 64 65 65 65 65 65 65 65 65 64 64 63 63 63 63 63 63 63 63 63 63 64 64 65 66 68 69 71 73 74 74 74 74 74 74 75 75 76 77 77 77 78
58 58 57 58 59 59 60 61 61 62 61 58 55 55 55 57 56 57 59 58 55 54 54 53 53 53 54 55 57 57 58 60 59 58 57 58 58 58 59 60 61 61 62 63 64 65 65 65 65 65 64 64 64 64 64 64 64 64 64 63 63 63 63 64 65 66 68 69 71 73 75 76 77 77 77 77 77 78 78 79 79 80 81 81 81 82
57 57 57 58 59 60 61 62 63 64 61 56 55 55 56 58 57 58 62 59 53 53 54 53 54 55 56 56 57 57 59 60 58 56 55 55 55 57 59 60 61 63 63 64 64 64 64 64 64 64 64 64 64 65 65 65 64 64 63 63 64 65 67 68 70 71 72 73 75 77 79 80 80 80 80 81 81 81 82 83 84 85 85 86 86 86
56 57 58 59 60 61 62 63 64 64 60 57 57 58 58 59 58 60 63 58 51 51 53 52 55 56 55 55 56 57 58 59 57 57 57 57 58 60 61 61 62 63 63 64 64 64 64 64 64 64 64 64 64 64 64 64 64 64 65 66 68 70 71 72 73 74 76 77 79 81 82 83 83 83 84 84 85 85 86 87 88 89 90 90 91 91
56 56 57 59 59 59 60 61 62 62 59 57 57 58 59 59 60 62 61 56 52 53 51 51 54 54 53 54 56 56 57 58 58 58 60 61 61 62 62 62 62 62 62 63 63 63 64 64 64 64 64 64 64 64 64 65 66 68 69 71 72 73 74 75 76 78 79 81 83 84 84 85 86 86 87 88 88 89 90 91 92 92 93 94 95 95
56 57 57 57 57 58 58 59 60 60 57 55 57 59 60 61 61 60 57 54 54 54 52 53 55 55 55 56 57 57 58 58 58 58 59 60 60 60 60 60 60 60 61 61 62 62 63 63 63 63 64 64 65 66 67 69 70 71 73 73 74 75 76 78 79 81 82 84 85 86 87 87 88 89 90 91 92 92 92 93 94 95 96 97 97 98
57 57 58 57 56 57 58 59 61 59 55 54 56 59 60 60 57 55 54 54 55 55 56 57 58 59 59 58 58 58 58 58 58 58 58 59 59 59 60 60 60 61 61 61 61 62 62 63 64 65 66 67 68 70 71 73 74 74 75 76 77 78 79 80 82 83 85 86 87 88 88 89 90 91 92 93 93 94 94 95 96 96 97 98 99 99
60 60 59 58 57 58 60 60 59 55 51 51 53 54 55 55 54 54 55 56 57 58 59 59 60 61 61 59 58 59 59 59 59 59 59 59 60 60 61 61 62 62 62 63 63 64 65 66 67 68 70 71 72 73 74 75 76 77 77 78 79 80 81 83 84 85 87 87 88 88 89 89 90 91 92 93 94 94 95 95 96 96 97 98 99 100
62 62 60 59 58 58 59 57 54 52 51 52 53 53 54 54 55 57 57 57 57 57 57 57 58 59 60 59 59 58 58 58 59 59 60 60 60 61 61 62 63 64 65 66 67 68 69 70 71 72 72 73 74 75 76 77 77 78 79 80 81 82 83 84 86 86 87 88 88 89 89 89 90 90 91 91 92 93 94 95 96 96 97 98 99 101
60 59 59 58 58 58 57 55 54 53 53 54 55 56 57 56 56 58 58 57 57 57 56 56 56 56 57 58 58 57 57 57 57 58 59 60 61 62 63 64 66 67 68 70 70 71 72 73 73 74 74 75 76 76 77 78 79 79 80 81 82 83 84 85 86 86 87 87 87 88 88 88 89 89 90 90 91 92 93 95 96 97 98 99 100 101
60 59 59 59 60 60 59 57 55 55 55 56 58 58 58 58 59 59 60 60 60 60 59 59 59 59 59 60 60 61 61 61 62 62 63 64 65 66 67 67 68 69 70 71 71 72 73 74 74 75 75 76 77 78 78 79 80 80 81 82 82 83 84 84 85 85 86 86 86 87 87 88 88 89 90 91 92 93 94 95 96 98 98 99 100 102
63 63 63 63 63 62 60 58 57 58 58 59 60 60 61 62 62 63 63 63 63 63 63 63 63 64 65 65 66 66 67 67 68 68 68 69 69 69 69 69 69 70 70 71 72 72 73 74 74 75 76 77 78 79 79 80 80 81 81 82 82 83 83 84 84 84 85 85 86 86 87 88 89 89 90 91 92 93 94 95 96 98 98 99 101 103
63 64 63 64 64 64 62 60 59 60 60 60 60 61 62 63 63 64 64 65 65 66 66 67 67 68 68 68 68 68 68 68 69 69 69 70 70 70 70 70 70 70 70 71 71 72 72 72 73 74 74 75 76 77 78 78 79 80 80 81 82 82 83 83 83 84 84 85 86 86 87 88 89 90 91 92 93 94 95 97 98 99 100 100 102 104
61 61 60 60 62 62 59 57 57 59 59 59 59 60 61 63 64 65 66 66 67 68 68 68 69 69 68 68 68 68 68 68 68 68 69 70 70 71 71 71 71 71 71 71 71 71 71 71 71 72 73 73 74 75 75 76 76 77 78 79 79 80 81 82 82 83 84 85 86 87 88 89 90 92 93 94 95 96 97 97 98 100 100 100 101 102
63 62 60 61 62 61 59 58 59 60 60 60 61 62 63 65 66 66 66 66 67 67 68 68 68 68 68 68 68 68 68 68 69 69 69 70 70 71 71 71 72 72 71 71 71 70 70 70 70 71 71 71 72 72 73 74 74 75 76 77 78 79 80 81 82 84 85 86 88 89 90 92 93 94 95 96 96 97 98 98 98 98 100 102 103 104
Wind_Direction
197 197 197 196 196 197 198 199 199 198 199 200 200 200 202 205 205 207 207 206 206 207 209 211 212 217 220 220 222 223 225 231 235 235 236 237 239 242 245 246 247 248 249 249 250 251 255 257 258 259 260 262 262 261 258 257 259 261 264 264 265 271 278 281 284 287 286 286 287 286 284 284 285 286 288 290 292 295 297 298 301 305 307 307 308 308
200 199 198 198 199 199 200 200 201 201 201 202 202 203 205 206 207 209 209 208 210 211 213 216 218 222 227 227 229 229 229 233 236 239 241 241 242 244 246 248 250 252 252 251 249 250 253 255 257 258 258 259 258 258 258 258 259 261 261 261 265 273 278 280 282 282 281 283 283 281 281 281 282 283 285 286 289 290 292 294 298 301 302 303 303 303
200 200 200 201 202 202 202 202 202 202 203 204 204 206 207 209 210 211 212 211 213 214 216 219 221 226 233 234 234 234 235 238 240 242 244 246 246 247 249 250 252 253 254 253 252 252 253 253 254 254 254 255 254 254 256 257 259 260 261 262 266 270 272 274 276 275 277 280 281 279 279 280 281 281 282 284 285 287 289 294 297 298 298 299 299 299
200 201 202 204 204 204 204 204 205 204 205 205 206 208 209 211 212 213 214 214 216 217 218 221 223 227 234 238 240 239 238 241 243 244 246 248 249 250 251 252 254 254 255 256 255 254 252 251 251 252 252 253 254 254 255 258 261 262 262 263 265 266 267 269 272 274 278 280 280 279 279 280 281 281 282 283 285 287 291 294 295 295 296 296 297 298
204 204 206 207 207 207 206 207 207 207 207 207 208 210 211 212 214 215 216 216 218 219 220 223 225 228 234 239 242 243 241 241 244 246 248 249 251 253 253 254 255 256 257 258 259 256 253 251 250 252 254 255 256 255 256 258 260 262 264 265 267 267 268 270 272 275 279 281 280 280 280 281 282 283 284 285 287 289 292 292 292 293 293 294 295 297
207 207 208 209 210 209 209 209 210 210 211 210 211 212 213 215 216 216 217 219 220 221 222 226 229 231 235 240 243 244 245 243 244 246 248 250 252 255 255 255 256 257 258 258 259 258 257 254 251 251 254 257 257 256 256 257 259 261 263 265 267 269 270 271 273 276 278 279 279 279 280 281 282 283 284 286 288 290 291 291 291 291 291 292 292 293
208 208 208 209 210 211 212 212 212 213 213 213 213 214 216 217 218 219 220 221 223 224 225 228 233 233 235 241 244 245 246 245 246 248 250 251 253 255 256 256 257 257 257 257 257 257 258 257 255 252 252 255 258 258 258 259 259 260 262 264 267 269 272 274 275 276 277 277 277 278 279 279 280 280 281 284 286 287 288 289 290 290 290 291 291 291
208 209 210 210 210 212 212 213 215 216 216 216 216 217 218 219 219 220 221 224 226 227 228 230 234 236 236 240 244 245 246 247 249 252 253 253 253 254 255 256 257 257 257 257 257 257 256 257 257 256 253 253 255 258 259 259 259 259 260 262 264 267 270 272 274 274 274 274 275 275 276 277 277 278 280 282 284 285 287 288 289 289 290 290 290 291
209 210 212 213 213 214 214 215 217 218 219 218 218 219 220 221 222 222 224 226 228 229 231 232 236 239 238 241 245 246 247 249 252 255 256 255 254 253 254 255 256 256 256 256 256 256 256 256 257 257 256 254 254 255 256 257 257 257 258 259 260 263 265 267 269 271 272 272 273 273 274 275 277 278 280 281 282 284 285 286 287 287 288 288 289 290
211 212 213 214 215 216 216 218 219 219 220 220 220 221 222 223 224 225 226 227 229 231 232 234 238 242 242 242 246 248 249 252 256 257 257 256 254 254 254 254 254 255 255 255 255 255 256 256 257 257 257 256 255 254 254 254 255 255 256 256 258 259 261 263 265 267 269 270 271 272 272 274 275 277 278 279 280 281 283 284 285 285 286 286 287 288
210 212 213 215 215 216 216 217 218 220 221 220 221 222 223 225 226 227 228 229 231 232 232 235 240 244 245 242 245 250 253 256 258 259 258 258 256 255 254 254 254 254 254 254 254 255 255 255 256 257 257 257 255 254 254 254 255 256 256 257 258 258 260 261 263 264 266 268 269 270 271 273 274 275 276 277 278 280 281 283 283 284 284 285 287 288
209 210 212 214 215 216 217 218 218 220 221 221 222 223 225 226 227 229 230 231 233 234 234 238 242 244 246 245 246 250 254 257 259 260 260 260 259 258 256 254 253 254 254 254 253 253 254 254 254 255 256 257 256 255 255 255 256 257 258 259 259 260 260 261 262 264 266 267 269 270 272 273 274 275 276 277 279 280 282 283 284 285 286 287 288 290
208 210 211 213 214 215 216 218 219 220 221 222 223 224 226 228 229 231 232 234 236 236 238 241 243 245 247 249 249 249 251 256 259 261 261 261 261 259 257 255 253 253 253 253 253 253 253 253 254 254 254 255 256 256 255 256 257 258 259 260 261 261 262 263 264 266 268 269 271 272 273 275 276 277 278 279 280 282 283 284 285 286 287 288 289 290
209 210 211 212 214 215 216 218 219 221 223 224 225 227 229 231 233 234 236 237 239 240 241 243 245 246 247 249 251 250 251 254 256 260 262 262 261 259 257 255 254 252 252 252 253 253 253 254 254 254 253 253 254 254 255 256 257 259 260 261 262 263 264 265 266 268 269 271 272 273 274 275 276 277 278 279 281 282 283 284 285 286 287 288 289 289
215 215 215 215 216 217 218 220 221 222 224 226 227 229 231 232 234 235 237 239 240 241 242 242 244 245 247 250 252 253 253 254 254 256 259 261 261 260 259 257 255 254 253 252 252 253 253 254 254 254 254 253 253 253 254 255 257 258 260 261 262 263 264 265 266 268 269 270 271 272 273 275 276 277 278 280 281 282 283 284 285 287 288 289 289 290
216 218 219 220 221 221 222 222 223 224 225 225 225 226 228 230 232 234 236 238 239 240 241 242 244 246 249 251 252 253 254 255 255 256 257 259 259 259 259 258 257 256 254 253 253 253 253 254 255 255 255 254 254 254 254 255 257 258 260 261 262 263 264 265 267 268 270 271 272 273 274 276 277 278 280 281 282 283 285 286 287 288 289 289 290 291
216 217 218 220 222 222 223 223 224 225 227 228 228 229 231 232 234 236 237 239 240 241 242 242 244 246 249 251 252 253 255 256 257 257 256 255 256 257 257 257 258 257 257 255 254 254 255 255 256 256 256 256 256 256 256 258 259 260 261 262 263 265 266 267 269 270 271 271 272 273 274 276 278 279 281 282 284 285 286 287 287 288 289 289 290 290
219 219 220 221 221 222 223 223 225 226 227 229 230 231 233 234 235 235 237 238 239 240 241 242 243 245 248 251 254 255 256 256 256 256 255 254 254 254 255 255 256 256 257 258 257 257 256 257 257 256 257 257 257 257 258 259 260 262 263 264 266 267 268 269 270 271 271 272 273 274 276 278 279 281 282 283 284 285 286 287 287 288 289 289 290 290
218 219 220 222 223 223 223 224 224 226 227 228 229 229 231 232 233 235 237 238 239 242 243 243 244 246 248 252 255 256 255 255 255 255 256 255 254 252 252 254 255 256 257 257 258 257 257 257 257 257 257 257 258 259 260 261 262 264 265 267 268 269 270 271 272 273 274 275 276 277 279 280 281 282 283 284 284 285 286 287 288 288 288 288 289 289
215 218 219 220 222 223 224 224 225 226 227 228 229 229 230 233 234 235 238 240 241 244 245 245 245 246 248 250 252 253 254 255 255 256 256 255 255 254 253 253 254 255 256 256 256 256 255 255 256 256 257 257 258 260 261 262 264 265 267 268 270 271 272 273 274 275 276 277 278 279 280 281 282 283 283 284 285 286 287 287 287 288 288 288 288 289
215 217 219 220 221 223 224 225 226 227 228 230 230 231 233 235 237 238 240 241 242 244 245 245 245 245 246 247 249 252 254 255 256 256 256 255 256 256 254 253 252 252 254 255 256 256 255 255 255 255 256 257 258 260 261 263 264 266 267 269 270 271 272 273 274 275 276 277 278 279 280 281 282 282 283 284 285 286 287 287 288 288 289 290 290 290
217 218 220 221 221 223 225 226 227 227 228 229 230 231 232 234 236 237 238 239 241 243 244 245 245 244 244 246 248 251 253 255 256 256 256 256 256 255 255 254 253 252 253 254 256 257 258 257 257 257 258 259 260 262 263 264 266 267 268 269 270 271 271 272 274 275 276 277 278 279 280 281 283 284 285 286 287 287 288 288 289 289 290 290 290 290
219 221 223 223 223 223 224 225 226 227 227 228 228 229 230 232 233 235 237 238 239 241 243 245 246 244 244 247 248 249 251 253 255 256 256 255 255 254 254 255 255 254 254 254 256 258 259 260 261 262 263 263 264 265 266 267 268 269 270 271 272 273 274 275 277 278 279 280 281 282 283 284 285 286 287 287 287 288 288 289 289 289 289 289 290 290
219 222 224 225 226 225 225 225 225 225 226 226 227 228 230 232 233 235 237 238 239 241 243 245 247 246 246 248 249 250 250 251 252 254 254 254 253 253 254 254 255 256 256 257 258 259 260 261 263 264 265 267 268 269 270 271 272 273 274 275 276 277 278 280 281 282 283 284 284 285 286 286 287 287 288 288 288 288 289 289 288 288 289 289 289 289
222 224 224 225 226 226 225 224 224 224 225 226 227 228 230 231 232 234 236 238 239 241 243 246 247 247 247 248 249 250 250 250 251 252 253 254 254 255 255 256 256 257 258 260 261 261 262 262 263 265 266 268 269 270 271 273 274 275 276 278 279 280 282 282 283 284 285 285 286 287 287 287 288 288 288 288 288 288 288 288 288 288 288 288 288 289
225 227 226 227 228 226 225 225 225 226 228 229 229 229 230 232 234 237 239 240 240 240 242 244 246 246 245 246 248 249 250 251 252 253 254 255 257 257 257 258 258 258 259 261 262 264 265 266 267 268 268 269 270 270 272 273 275 276 277 279 280 281 282 282 283 284 284 285 285 286 286 286 287 287 287 288 288 288 288 288 288 288 288 288 289 289
226 227 226 228 229 228 228 229 228 230 231 232 231 232 234 235 237 240 242 241 241 241 242 242 243 243 242 244 247 250 252 253 255 255 256 256 258 258 258 259 260 261 263 264 266 267 268 269 271 271 272 272 273 273 274 276 277 277 278 279 279 280 281 282 283 283 284 285 285 285 286 286 287 288 288 288 289 289 289 289 289 289 289 289 289 289
227 227 225 226 228 228 229 229 228 229 230 230 230 231 233 235 237 239 241 240 240 242 241 240 241 242 242 243 246 249 253 254 255 256 257 258 259 260 261 263 265 267 268 269 271 271 272 273 273 274 275 275 276 276 277 277 278 279 279 280 280 281 282 283 284 285 285 286 286 287 288 288 289 289 289 289 289 289 289 289 289 289 288 288 288 288
228 228 227 227 228 229 230 231 230 230 231 231 231 232 233 235 237 239 240 240 242 244 244 243 243 243 243 244 246 249 253 255 257 259 260 262 264 266 267 269 270 271 271 272 273 274 274 275 275 276 277 278 278 278 278 279 279 280 280 282 283 284 285 286 286 287 288 288 289 289 290 290 290 290 289 289 289 289 289 289 289 289 289 289 289 289
230 230 229 230 231 231 233 234 233 234 234 234 234 235 237 239 241 242 242 243 244 246 245 245 244 243 245 248 251 253 256 258 260 263 264 266 268 270 271 272 272 273 273 273 273 273 274 275 276 277 278 278 279 279 280 281 281 282 283 284 285 286 287 288 289 289 290 290 290 291 291 290 290 289 289 289 289 289 289 289 289 290 290 290 290 290
233 232 232 233 234 234 234 235 236 236 237 237 237 238 239 240 242 243 242 244 246 247 248 249 249 246 246 251 256 258 260 261 262 265 267 268 269 270 271 273 273 273 273 273 273 274 275 276 277 277 277 278 278 279 281 282 283 284 285 286 287 288 288 289 289 290 290 290 291 291 290 291 291 291 291 291 290 290 290 290 291 291 291 291 291 291
237 236 236 236 238 237 237 238 239 240 241 242 241 240 240 241 242 244 246 248 250 252 253 255 253 250 250 255 259 261 261 262 263 265 266 268 270 271 271 272 272 272 273 274 275 276 277 277 277 277 278 278 279 280 280 282 283 285 286 287 287 288 288 289 289 290 290 290 290 291 291 291 291 291 291 291 291 292 292 292 292 292 292 292 292 292
241 241 240 240 241 241 240 241 243 244 245 245 242 241 243 244 245 247 248 250 252 255 257 257 256 254 255 256 258 259 260 261 262 264 266 267 268 269 269 270 271 273 274 275 276 277 277 277 278 278 279 280 280 281 282 283 284 285 286 287 287 288 288 289 289 290 290 290 290 290 290 290 290 290 290 291 291 292 292 293 293 293 293 292 292 292
241 242 242 243 244 243 242 243 245 246 246 245 243 243 245 246 248 250 251 251 253 256 257 257 256 254 254 254 256 259 261 261 262 263 264 265 266 268 269 271 272 274 275 276 276 276 277 277 278 279 280 280 281 283 284 284 284 285 285 286 287 288 288 289 289 289 289 289 288 288 288 288 288 289 290 291 291 292 292 292 292 291 291 291 290 290
242 242 243 244 245 245 245 244 245 246 246 245 244 245 246 247 250 251 251 251 252 254 255 256 256 256 257 257 258 260 262 262 262 263 264 265 267 268 270 271 272 273 274 274 275 275 277 277 278 279 280 281 282 283 283 283 284 284 285 285 286 286 287 287 287 287 287 286 285 285 285 286 287 289 290 291 291 291 291 290 290 290 290 290 290 290
242 243 243 244 245 246 246 246 248 249 249 248 247 247 248 250 253 254 253 252 253 256 258 258 259 260 260 260 259 260 262 262 263 263 265 266 267 267 269 270 271 271 272 273 275 275 276 277 278 279 279 280 281 281 282 282 283 283 284 285 285 285 285 285 285 285 284 284 283 283 284 286 288 290 291 291 291 291 290 290 290 290 290 290 291 291
240 241 243 244 244 246 247 249 251 252 251 249 249 249 251 253 255 256 257 255 255 257 259 259 259 260 260 260 260 260 261 261 262 263 265 266 267 268 269 270 270 271 272 273 273 274 275 276 277 278 278 279 279 280 280 281 282 282 283 283 283 283 283 283 283 283 283 283 283 284 286 287 289 290 291 291 291 291 291 291 291 291 291 292 292 292
239 240 241 243 244 245 247 248 250 251 250 249 251 251 252 255 256 257 258 255 254 258 260 260 261 262 262 262 262 262 262 262 263 265 267 267 267 268 268 268 268 269 269 270 271 272 273 274 275 276 277 277 278 279 280 280 281 281 281 281 282 282 283 283 283 283 284 284 285 286 288 289 290 291 291 292 292 292 292 292 293 293 293 293 293 294
239 240 241 242 243 244 246 248 249 251 251 251 252 253 254 255 256 257 258 256 255 259 262 262 263 263 262 262 262 262 262 263 265 266 266 264 263 264 264 265 266 267 268 269 271 272 273 273 274 275 275 276 277 278 279 279 279 280 280 280 281 282 283 284 284 284 285 286 287 289 290 291 291 292 292 292 293 293 293 293 293 294 294 294 294 294
239 241 241 242 244 246 247 249 250 252 252 252 252 254 255 256 257 257 258 259 258 260 262 263 263 262 261 261 262 262 263 264 265 264 262 261 261 262 263 263 265 266 267 269 270 270 271 272 273 273 274 275 276 277 277 278 278 279 280 281 282 283 283 284 284 285 286 287 289 290 291 292 293 293 293 293 293 294 294 294 294 294 294 295 295 295
241 242 243 245 247 248 249 250 252 253 253 253 254 255 256 256 256 257 260 262 261 261 261 261 261 261 261 261 261 261 262 262 262 261 261 261 262 262 263 264 264 265 266 267 268 269 270 271 272 273 273 274 275 276 276 277 278 279 280 281 282 283 284 285 285 286 288 289 290 292 292 293 293 294 294 294 294 294 294 294 294 294 294 294 294 295
241 243 245 245 247 248 250 252 253 253 252 253 254 255 255 256 257 259 263 264 263 262 261 259 259 259 259 259 259 260 260 261 261 261 261 261 262 262 263 264 264 265 266 267 268 269 270 271 271 272 273 273 274 275 277 278 279 280 281 282 283 284 285 286 287 288 289 290 291 292 293 293 294 294 294 294 294 294 294 294 294 294 294 294 294 294
242 244 245 246 247 249 250 251 252 252 252 254 256 257 258 259 261 263 264 263 262 261 259 258 258 257 257 256 257 258 259 260 260 260 260 260 261 262 263 264 265 266 267 268 269 269 270 270 271 272 273 274 275 277 278 280 281 282 283 284 285 286 287 288 288 289 290 291 291 292 292 292 292 292 293 293 293 293 293 293 293 293 293 293 293 293
242 243 245 246 246 248 249 250 252 253 254 255 257 259 260 261 262 261 260 259 258 258 257 257 258 258 259 258 257 257 257 258 259 259 260 261 261 263 264 264 266 267 268 269 270 270 271 272 273 274 275 276 278 279 280 281 283 284 284 285 286 287 288 288 289 289 289 290 290 290 291 291 291 291 291 291 291 291 291 292 292 292 292 292 292 292
243 244 246 246 246 247 249 250 252 252 252 253 254 254 255 256 256 257 258 257 257 257 257 257 258 259 260 260 259 259 258 258 258 258 259 260 261 262 263 264 266 267 268 270 271 272 273 274 276 277 278 279 280 281 282 283 284 285 285 286 287 287 288 288 288 288 289 289 289 289 289 289 289 289 290 290 290 290 291 291 291 291 291 291 291 291
245 246 247 247 246 246 247 248 248 249 249 249 250 250 251 252 254 255 257 257 258 258 258 258 258 259 259 260 260 260 259 258 257 257 258 259 260 262 263 265 267 268 270 271 272 274 276 277 278 279 280 281 282 282 283 284 285 285 286 286 287 287 287 287 287 287 287 287 288 288 288 288 288 289 289 290 290 290 290 291 291 291 291 291 291 291
245 245 246 247 247 247 247 248 249 249 249 248 249 251 252 253 254 255 256 257 258 258 259 260 260 260 260 260 260 261 260 260 260 261 261 262 263 264 266 267 269 270 272 274 276 277 278 279 280 281 281 282 282 283 284 284 285 285 285 285 285 285 285 285 286 286 286 287 287 287 288 288 288 289 289 289 289 290 290 290 290 290 291 291 291 292
245 246 247 248 249 249 249 250 251 252 252 252 253 254 254 255 256 256 257 258 259 260 261 262 262 262 262 261 261 262 263 263 264 266 267 269 270 271 272 273 274 275 276 277 278 278 279 279 279 280 281 281 282 282 283 283 283 283 283 284 284 284 284 285 286 286 287 287 287 287 288 288 288 288 288 288 289 289 289 290 290 291 291 292 292 293
247 248 249 250 251 252 251 251 253 255 256 256 257 258 258 259 259 259 260 261 262 262 263 263 263 263 264 265 265 267 268 269 270 272 273 275 276 277 278 278 278 278 278 278 278 278 278 278 278 279 279 280 280 281 281 281 282 282 283 283 283 284 285 285 286 286 286 287 287 287 287 288 288 288 288 289 289 289 290 290 291 291 292 292 293 294
247 249 250 251 252 253 254 254 255 256 257 257 257 258 258 259 259 260 261 261 262 263 264 265 266 267 269 270 272 273 273 274 274 275 275 276 276 277 277 277 277 277 278 278 278 277 277 278 278 278 279 279 280 280 281 281 282 282 283 283 284 284 285 285 286 286 286 287 287 287 288 288 288 289 289 289 290 290 290 291 291 292 293 293 293 294
245 247 248 249 251 253 254 253 253 253 254 255 255 255 255 256 258 259 261 262 262 264 265 266 268 269 270 272 272 272 272 272 273 273 273 273 274 274 275 275 275 276 276 276 276 276 277 277 278 278 279 279 280 280 281 281 282 282 283 283 284 284 285 285 286 286 287 287 287 288 288 289 289 289 290 290 290 290 291 291 291 292 293 294 294 295
Height
5810 5812 5816 5821 5825 5829 5833 5836 5840 5843 5845 5847 5849 5851 5852 5854 5856 5858 5860 5862 5864 5865 5867 5868 5869 5870 5871 5873 5874 5875 5876 5877 5877 5877 5878 5879 5880 5881 5881 5881 5882 5882 5883 5885 5886 5886 5887 5887 5887 5887 5887 5887 5887 5888 5888 5888 5888 5888 5888 5888 5888 5888 5889 5889 5889 5889 5888 5888 5888 5887 5886 5886 5885 5885 5884 5883 5883 5882 5881 5881 5880 5880 5879 5878 5877 5877
5808 5811 5816 5821 5825 5828 5831 5834 5837 5840 5842 5844 5846 5848 5850 5852 5854 5856 5858 5860 5862 5863 5865 5866 5868 5869 5869 5870 5871 5873 5874 5874 5875 5876 5876 5877 5878 5879 5879 5879 5880 5879 5880 5882 5884 5884 5885 5885 5885 5885 5885 5885 5885 5886 5886 5886 5886 5886 5887 5887 5887 5887 5887 5887 5887 5887 5886 5886 5885 5885 5884 5884 5883 5883 5882 5882 5881 5880 5879 5879 5878 5878 5877 5876 5875 5874
5804 5809 5814 5818 5821 5824 5827 5830 5833 5836 5839 5841 5843 5845 5847 5850 5852 5854 5856 5858 5859 5861 5862 5864 5866 5867 5866 5867 5868 5870 5871 5872 5873 5874 5874 5875 5876 5876 5877 5878 5878 5877 5878 5879 5881 5883 5883 5883 5883 5883 5882 5883 5883 5883 5883 5883 5884 5884 5885 5885 5885 5885 5885 5885 5885 5884 5884 5884 5883 5883 5882 5882 5881 5881 5880 5879 5878 5878 5877 5877 5876 5876 5875 5874 5873 5872
5802 5807 5811 5814 5817 5821 5824 5827 5830 5833 5835 5838 5840 5842 5845 5848 5850 5851 5853 5855 5856 5858 5860 5862 5863 5864 5864 5864 5866 5867 5869 5870 5871 5872 5872 5873 5873 5874 5875 5875 5875 5875 5875 5877 5879 5881 5881 5881 5881 5880 5880 5880 5880 5881 5881 5881 5881 5882 5882 5882 5883 5883 5883 5883 5883 5882 5882 5882 5881 5881 5880 5880 5879 5878 5877 5877 5876 5875 5875 5875 5874 5873 5872 5871 5870 5869
5803 5806 5809 5812 5815 5818 5821 5824 5827 5830 5832 5835 5838 5840 5843 5845 5847 5849 5851 5852 5854 5855 5857 5859 5860 5861 5861 5862 5863 5864 5866 5867 5868 5869 5870 5870 5871 5871 5872 5873 5873 5873 5873 5874 5876 5878 5879 5879 5879 5878 5878 5878 5878 5878 5879 5879 5879 5879 5879 5880 5880 5880 5881 5881 5881 5880 5880 5880 5879 5878 5878 5877 5877 5876 5875 5874 5874 5873 5873 5872 5871 5870 5869 5868 5867 5866
5800 5804 5807 5810 5814 5816 5819 5822 5824 5827 5830 5833 5835 5838 5840 5842 5844 5846 5848 5849 5851 5852 5854 5856 5857 5858 5859 5860 5861 5862 5863 5865 5865 5866 5867 5868 5868 5869 5869 5870 5870 5870 5871 5872 5873 5875 5876 5876 5877 5876 5876 5876 5876 5876 5876 5876 5876 5877 5877 5877 5877 5878 5878 5878 5878 5878 5878 5878 5877 5876 5876 5875 5875 5874 5872 5872 5871 5871 5870 5869 5868 5867 5866 5865 5864 5863
5796 5800 5803 5806 5810 5813 5816 5819 5821 5824 5827 5829 5832 5835 5837 5839 5841 5843 5845 5846 5847 5849 5851 5853 5854 5855 5857 5857 5858 5859 5860 5862 5863 5864 5865 5865 5866 5866 5866 5867 5867 5868 5869 5870 5871 5872 5873 5873 5874 5874 5874 5874 5874 5874 5874 5874 5874 5874 5874 5875 5875 5875 5875 5875 5875 5875 5875 5875 5875 5874 5873 5872 5872 5871 5870 5869 5868 5867 5867 5866 5864 5863 5863 5862 5861 5859
5793 5797 5800 5802 5805 5808 5811 5815 5819 5822 5824 5827 5830 5832 5834 5836 5837 5839 5841 5842 5843 5845 5847 5849 5850 5852 5853 5854 5855 5856 5857 5859 5860 5861 5862 5863 5863 5863 5863 5864 5864 5865 5866 5867 5868 5869 5869 5870 5871 5871 5872 5872 5872 5872 5872 5872 5872 5872 5872 5872 5872 5872 5872 5872 5872 5872 5872 5872 5871 5871 5870 5869 5868 5868 5867 5866 5865 5864 5863 5862 5861 5860 5859 5858 5856 5855
5792 5794 5797 5800 5803 5806 5810 5813 5816 5818 5821 5824 5827 5828 5830 5832 5833 5835 5837 5838 5840 5842 5843 5846 5847 5848 5850 5852 5852 5853 5854 5855 5857 5858 5859 5860 5860 5860 5860 5861 5861 5862 5863 5864 5865 5865 5866 5867 5868 5868 5869 5869 5869 5869 5869 5869 5869 5869 5870 5870 5870 5870 5869 5869 5869 5868 5868 5868 5868 5867 5866 5865 5865 5864 5863 5862 5861 5860 5860 5859 5857 5856 5855 5854 5852 5851
5789 5792 5795 5798 5801 5804 5808 5810 5812 5815 5817 5820 5823 5824 5826 5828 5829 5831 5833 5835 5836 5838 5840 5843 5844 5844 5847 5849 5849 5849 5851 5853 5854 5855 5855 5856 5857 5857 5858 5858 5858 5859 5860 5860 5861 5862 5863 5863 5864 5865 5865 5865 5866 5866 5866 5866 5866 5866 5866 5866 5866 5866 5866 5866 5865 5865 5864 5864 5864 5863 5862 5862 5861 5860 5859 5858 5857 5857 5856 5855 5853 5852 5851 5850 5848 5847
5785 5788 5791 5794 5797 5800 5803 5805 5807 5810 5812 5815 5818 5820 5822 5824 5825 5827 5829 5831 5832 5834 5837 5840 5841 5841 5843 5845 5846 5846 5848 5850 5851 5851 5852 5853 5854 5854 5855 5855 5855 5856 5856 5857 5858 5858 5859 5860 5861 5861 5861 5862 5862 5862 5862 5862 5862 5862 5862 5862 5862 5862 5862 5862 5861 5861 5860 5860 5859 5859 5858 5858 5857 5856 5855 5854 5853 5853 5852 5850 5849 5848 5846 5845 5844 5843
5779 5782 5786 5789 5793 5796 5798 5800 5803 5805 5808 5811 5814 5816 5818 5820 5822 5823 5825 5827 5828 5830 5834 5836 5838 5838 5839 5842 5844 5844 5845 5846 5847 5847 5848 5849 5850 5851 5852 5852 5852 5852 5853 5854 5854 5855 5856 5856 5857 5858 5858 5858 5858 5858 5858 5859 5858 5858 5858 5858 5858 5858 5858 5857 5857 5857 5856 5856 5856 5855 5854 5853 5853 5852 5851 5850 5849 5848 5847 5846 5844 5843 5842 5841 5839 5838
5774 5778 5781 5784 5787 5790 5793 5795 5798 5801 5804 5806 5809 5812 5814 5815 5818 5820 5822 5824 5825 5828 5831 5833 5834 5834 5836 5838 5840 5841 5842 5843 5843 5844 5844 5846 5846 5847 5848 5848 5849 5849 5850 5850 5851 5851 5852 5853 5853 5854 5854 5854 5854 5854 5854 5854 5854 5854 5854 5854 5854 5854 5853 5853 5853 5853 5853 5852 5852 5851 5850 5849 5848 5848 5847 5846 5845 5844 5843 5841 5840 5839 5837 5836 5834 5833
5771 5773 5777 5780 5783 5786 5789 5791 5795 5798 5802 5804 5807 5809 5811 5813 5815 5817 5819 5821 5823 5825 5827 5829 5830 5831 5833 5834 5835 5837 5839 5840 5840 5840 5841 5842 5842 5843 5844 5844 5845 5846 5846 5847 5847 5848 5848 5849 5849 5850 5850 5850 5851 5850 5850 5850 5850 5850 5850 5850 5850 5849 5849 5849 5849 5849 5849 5848 5847 5846 5845 5845 5844 5843 5842 5841 5840 5839 5838 5836 5835 5834 5832 5831 5829 5827
5771 5773 5776 5779 5781 5784 5787 5790 5794 5797 5799 5801 5804 5806 5808 5810 5812 5814 5816 5817 5819 5822 5823 5824 5825 5827 5829 5831 5831 5834 5836 5836 5837 5837 5838 5838 5838 5839 5840 5840 5841 5842 5842 5843 5843 5844 5844 5845 5845 5846 5846 5846 5847 5847 5846 5846 5846 5846 5846 5845 5845 5845 5845 5845 5845 5845 5844 5844 5843 5842 5841 5840 5839 5838 5837 5836 5835 5834 5832 5831 5830 5828 5827 5825 5824 5822
5769 5772 5776 5779 5781 5784 5786 5788 5791 5793 5794 5796 5799 5801 5802 5805 5807 5809 5811 5813 5815 5817 5818 5820 5822 5824 5826 5827 5828 5830 5831 5832 5833 5834 5835 5835 5835 5835 5835 5836 5837 5838 5838 5839 5839 5840 5840 5841 5842 5842 5842 5842 5842 5842 5842 5842 5842 5841 5841 5841 5841 5841 5841 5841 5841 5840 5840 5839 5838 5837 5836 5835 5834 5833 5832 5831 5830 5829 5827 5826 5824 5823 5821 5820 5818 5816
5766 5769 5772 5775 5777 5780 5782 5784 5787 5788 5790 5793 5795 5797 5800 5803 5804 5806 5807 5809 5811 5812 5814 5816 5819 5821 5822 5823 5824 5827 5828 5828 5829 5831 5831 5831 5832 5832 5832 5832 5833 5833 5834 5835 5835 5836 5836 5837 5837 5838 5838 5838 5838 5838 5838 5837 5837 5837 5836 5836 5836 5836 5837 5837 5837 5836 5835 5834 5833 5832 5831 5830 5829 5828 5827 5826 5824 5823 5822 5820 5819 5817 5816 5814 5812 5810
5765 5768 5770 5771 5773 5775 5778 5780 5782 5784 5787 5790 5792 5796 5798 5798 5799 5802 5803 5805 5806 5807 5809 5812 5815 5817 5818 5819 5821 5823 5824 5824 5825 5827 5827 5828 5829 5829 5828 5829 5829 5829 5830 5830 5831 5832 5832 5833 5833 5833 5834 5834 5834 5833 5833 5833 5832 5832 5832 5832 5832 5832 5832 5832 5832 5831 5830 5829 5828 5827 5826 5825 5824 5823 5822 5820 5819 5818 5816 5815 5813 5811 5810 5808 5806 5804
5761 5763 5766 5767 5769 5772 5774 5775 5777 5780 5783 5785 5788 5791 5792 5792 5795 5797 5798 5800 5802 5803 5805 5809 5811 5813 5815 5817 5818 5819 5819 5820 5821 5823 5824 5825 5825 5825 5825 5825 5825 5826 5826 5827 5827 5827 5828 5828 5828 5829 5829 5829 5829 5829 5828 5828 5828 5828 5828 5827 5827 5827 5827 5827 5826 5825 5824 5823 5822 5821 5821 5820 5818 5817 5816 5815 5813 5812 5810 5809 5807 5805 5804 5802 5800 5798
5755 5758 5760 5762 5764 5766 5768 5770 5773 5776 5779 5781 5784 5786 5786 5788 5791 5793 5795 5797 5799 5800 5802 5805 5806 5809 5813 5814 5814 5814 5815 5816 5817 5819 5820 5821 5821 5821 5822 5822 5822 5822 5822 5823 5823 5823 5824 5824 5824 5824 5824 5824 5824 5824 5824 5824 5824 5823 5823 5823 5823 5823 5822 5821 5820 5819 5818 5818 5817 5816 5815 5814 5813 5812 5810 5809 5808 5806 5805 5803 5801 5799 5797 5796 5794 5792
5750 5752 5754 5757 5759 5760 5763 5766 5770 5773 5775 5777 5780 5782 5784 5786 5788 5790 5792 5793 5795 5796 5798 5799 5801 5805 5809 5810 5810 5810 5811 5812 5813 5815 5816 5817 5817 5818 5818 5818 5818 5818 5818 5819 5819 5819 5819 5820 5820 5820 5820 5820 5820 5820 5820 5820 5819 5819 5819 5818 5818 5818 5817 5816 5815 5814 5813 5813 5812 5811 5810 5809 5808 5806 5805 5803 5802 5800 5799 5797 5795 5792 5790 5788 5786 5784
5745 5748 5749 5751 5754 5757 5760 5764 5767 5768 5770 5773 5775 5778 5780 5782 5784 5785 5786 5788 5790 5791 5792 5793 5795 5801 5805 5806 5806 5807 5807 5808 5809 5810 5811 5812 5813 5813 5813 5814 5814 5814 5814 5814 5814 5815 5815 5815 5815 5815 5815 5815 5815 5815 5815 5815 5815 5814 5814 5814 5814 5813 5812 5811 5810 5809 5809 5808 5807 5806 5805 5803 5802 5801 5799 5797 5796 5794 5792 5790 5788 5786 5783 5781 5779 5777
5742 5744 5745 5747 5750 5753 5755 5758 5760 5763 5765 5768 5770 5773 5775 5776 5778 5779 5781 5784 5785 5785 5787 5788 5790 5797 5802 5802 5803 5804 5804 5805 5805 5805 5807 5808 5808 5809 5809 5809 5809 5809 5810 5810 5810 5810 5810 5810 5810 5810 5810 5810 5810 5810 5810 5810 5810 5809 5809 5809 5808 5807 5807 5806 5805 5804 5803 5802 5801 5800 5799 5797 5796 5794 5792 5790 5789 5787 5785 5783 5781 5779 5777 5774 5772 5770
5736 5738 5740 5742 5745 5747 5750 5753 5755 5757 5760 5762 5766 5769 5770 5772 5774 5775 5776 5779 5779 5780 5784 5784 5786 5794 5799 5799 5799 5799 5799 5800 5801 5801 5802 5803 5803 5804 5804 5804 5804 5804 5804 5804 5805 5805 5805 5805 5805 5805 5805 5805 5805 5805 5804 5804 5804 5803 5803 5802 5802 5801 5800 5799 5798 5797 5796 5795 5794 5793 5791 5790 5788 5786 5784 5783 5781 5779 5777 5776 5774 5772 5769 5767 5764 5762
5730 5731 5733 5736 5738 5740 5743 5745 5748 5751 5754 5758 5762 5764 5765 5768 5769 5770 5772 5774 5774 5777 5781 5780 5782 5792 5795 5794 5793 5793 5794 5795 5796 5796 5797 5797 5798 5798 5798 5799 5799 5799 5799 5799 5799 5800 5800 5800 5800 5800 5800 5800 5799 5799 5799 5798 5797 5797 5797 5796 5795 5794 5793 5793 5792 5791 5789 5788 5787 5786 5784 5782 5781 5779 5777 5775 5773 5772 5770 5768 5766 5764 5762 5759 5757 5754
5723 5724 5728 5730 5731 5734 5737 5740 5745 5750 5753 5755 5758 5760 5762 5764 5765 5767 5768 5768 5770 5775 5776 5776 5781 5788 5789 5788 5787 5787 5787 5789 5789 5790 5792 5792 5791 5792 5792 5792 5792 5793 5793 5794 5794 5794 5794 5794 5794 5794 5794 5794 5794 5793 5793 5793 5792 5792 5791 5790 5789 5788 5787 5786 5785 5784 5783 5782 5780 5779 5777 5776 5774 5772 5770 5768 5766 5764 5762 5760 5758 5756 5754 5751 5749 5746
5716 5718 5721 5724 5727 5732 5736 5741 5746 5749 5750 5751 5755 5757 5758 5760 5761 5762 5761 5762 5767 5770 5769 5772 5778 5781 5783 5783 5781 5780 5782 5783 5783 5784 5785 5785 5784 5784 5785 5786 5786 5787 5788 5788 5788 5788 5788 5788 5788 5788 5787 5787 5787 5787 5787 5786 5786 5785 5784 5783 5783 5782 5781 5780 5779 5778 5777 5775 5773 5772 5770 5768 5767 5764 5762 5760 5758 5756 5754 5752 5750 5748 5746 5744 5741 5739
5710 5712 5717 5720 5724 5728 5732 5735 5739 5740 5742 5745 5748 5749 5751 5752 5753 5753 5754 5759 5763 5762 5762 5770 5775 5775 5777 5778 5776 5775 5776 5777 5777 5777 5777 5777 5777 5778 5780 5781 5781 5781 5781 5781 5781 5781 5781 5781 5781 5781 5781 5780 5780 5780 5780 5779 5779 5778 5777 5776 5775 5775 5774 5773 5772 5770 5769 5767 5765 5764 5762 5760 5758 5756 5754 5752 5750 5747 5746 5743 5741 5740 5738 5736 5734 5732
5705 5708 5714 5717 5720 5724 5726 5728 5731 5734 5736 5738 5740 5742 5744 5746 5746 5747 5751 5756 5758 5756 5761 5769 5770 5770 5773 5773 5771 5771 5771 5771 5771 5771 5771 5771 5771 5773 5775 5775 5775 5774 5775 5775 5774 5775 5775 5774 5774 5774 5774 5773 5772 5772 5771 5771 5771 5770 5769 5768 5767 5766 5765 5764 5763 5761 5760 5758 5756 5754 5753 5751 5749 5747 5745 5743 5741 5739 5737 5735 5733 5731 5729 5727 5726 5724
5701 5705 5710 5713 5716 5719 5720 5722 5726 5728 5729 5732 5734 5737 5739 5740 5741 5744 5748 5752 5752 5752 5758 5762 5762 5765 5769 5768 5768 5768 5766 5767 5767 5765 5765 5765 5766 5767 5767 5767 5767 5767 5767 5768 5767 5768 5768 5767 5768 5767 5766 5766 5764 5763 5763 5762 5762 5762 5761 5760 5759 5757 5756 5755 5753 5752 5750 5749 5747 5745 5743 5742 5740 5738 5736 5735 5733 5731 5729 5727 5725 5723 5721 5719 5718 5716
5697 5701 5705 5708 5710 5711 5714 5717 5720 5721 5723 5726 5728 5730 5732 5734 5737 5740 5744 5747 5747 5748 5753 5755 5755 5761 5765 5765 5764 5763 5762 5762 5761 5760 5759 5758 5758 5759 5759 5759 5760 5759 5759 5759 5760 5761 5761 5761 5760 5759 5758 5758 5757 5756 5755 5754 5754 5753 5753 5752 5750 5749 5748 5746 5745 5743 5741 5740 5738 5736 5734 5732 5730 5729 5727 5725 5723 5722 5720 5719 5717 5715 5714 5712 5709 5707
5693 5696 5700 5703 5703 5705 5710 5713 5713 5715 5717 5716 5718 5723 5727 5731 5734 5738 5741 5742 5742 5745 5748 5747 5749 5757 5761 5760 5758 5757 5755 5755 5754 5753 5752 5751 5751 5752 5752 5752 5751 5751 5751 5752 5752 5753 5753 5753 5752 5751 5750 5750 5749 5749 5748 5747 5746 5745 5744 5743 5742 5741 5739 5738 5736 5734 5733 5731 5729 5727 5725 5723 5722 5720 5718 5716 5715 5713 5712 5710 5708 5707 5705 5703 5701 5699
5687 5691 5695 5697 5696 5700 5705 5706 5707 5709 5705 5703 5712 5723 5727 5730 5732 5733 5733 5735 5738 5740 5739 5740 5746 5753 5753 5751 5750 5749 5748 5748 5748 5747 5746 5745 5745 5745 5744 5744 5744 5744 5744 5745 5745 5745 5744 5744 5743 5743 5742 5741 5741 5740 5739 5739 5738 5737 5736 5735 5734 5732 5730 5729 5727 5726 5724 5723 5721 5719 5717 5715 5714 5712 5711 5709 5708 5706 5704 5702 5700 5698 5697 5695 5692 5690
5681 5684 5687 5689 5690 5693 5696 5699 5699 5695 5691 5700 5716 5723 5723 5724 5724 5723 5726 5730 5733 5732 5731 5734 5740 5743 5742 5743 5744 5742 5741 5742 5741 5740 5738 5738 5738 5738 5738 5738 5737 5738 5738 5737 5737 5736 5736 5736 5736 5735 5734 5733 5732 5731 5731 5730 5730 5729 5728 5727 5725 5724 5722 5720 5719 5717 5716 5715 5713 5712 5710 5708 5707 5705 5703 5702 5700 5698 5696 5694 5692 5690 5688 5687 5684 5682
5675 5677 5679 5681 5683 5685 5688 5690 5686 5681 5690 5705 5714 5715 5715 5716 5715 5716 5720 5724 5725 5724 5725 5728 5732 5735 5736 5738 5737 5735 5734 5733 5732 5732 5732 5732 5733 5733 5732 5732 5731 5731 5730 5729 5729 5728 5728 5728 5728 5726 5726 5725 5724 5723 5722 5722 5721 5720 5720 5719 5717 5716 5714 5712 5711 5709 5708 5707 5705 5704 5703 5701 5699 5697 5696 5694 5692 5690 5688 5685 5683 5681 5679 5678 5676 5673
5669 5671 5673 5675 5675 5676 5679 5679 5676 5680 5694 5702 5704 5707 5709 5709 5709 5711 5712 5716 5718 5719 5720 5722 5727 5729 5729 5729 5728 5727 5725 5725 5724 5725 5727 5727 5726 5726 5725 5725 5724 5723 5722 5722 5721 5721 5720 5720 5719 5719 5718 5717 5716 5716 5714 5714 5713 5712 5711 5711 5709 5708 5706 5705 5703 5701 5700 5698 5697 5696 5694 5693 5691 5689 5687 5685 5683 5681 5679 5676 5674 5671 5670 5669 5666 5664
5662 5664 5666 5667 5668 5670 5672 5672 5674 5679 5686 5691 5696 5702 5704 5702 5703 5704 5702 5706 5712 5712 5712 5716 5719 5720 5719 5719 5719 5717 5717 5716 5716 5719 5722 5720 5719 5719 5719 5718 5716 5715 5715 5714 5713 5713 5712 5712 5712 5711 5710 5709 5708 5707 5706 5705 5705 5704 5704 5703 5701 5700 5698 5697 5695 5693 5692 5690 5688 5687 5685 5683 5682 5680 5677 5675 5673 5671 5668 5666 5663 5661 5659 5658 5656 5654
5655 5657 5660 5660 5661 5664 5665 5667 5669 5670 5676 5686 5693 5697 5696 5694 5696 5695 5691 5696 5705 5706 5706 5710 5711 5711 5711 5710 5709 5709 5709 5708 5710 5715 5717 5713 5711 5712 5711 5709 5708 5708 5707 5705 5705 5705 5705 5705 5705 5704 5703 5701 5700 5699 5698 5697 5697 5696 5696 5695 5693 5691 5690 5688 5687 5685 5683 5681 5678 5676 5674 5672 5670 5669 5667 5664 5662 5660 5658 5655 5652 5650 5648 5646 5645 5643
5649 5650 5653 5653 5653 5657 5659 5660 5661 5663 5673 5685 5688 5688 5687 5686 5688 5687 5681 5689 5702 5703 5700 5702 5703 5701 5701 5700 5700 5701 5700 5701 5706 5711 5709 5703 5703 5704 5702 5701 5700 5699 5698 5698 5697 5697 5697 5698 5697 5696 5695 5693 5692 5691 5691 5690 5689 5688 5688 5687 5685 5683 5681 5679 5677 5675 5673 5670 5668 5665 5663 5661 5659 5657 5655 5653 5651 5649 5646 5644 5641 5638 5636 5634 5632 5631
5642 5644 5645 5645 5646 5651 5653 5653 5655 5659 5669 5677 5679 5679 5679 5679 5680 5677 5673 5684 5698 5697 5694 5696 5693 5690 5692 5693 5692 5693 5693 5695 5700 5702 5698 5694 5695 5695 5694 5693 5693 5692 5692 5691 5691 5690 5690 5689 5689 5688 5687 5686 5684 5684 5683 5682 5681 5680 5679 5679 5677 5675 5673 5670 5668 5666 5663 5660 5658 5655 5652 5649 5647 5645 5643 5642 5640 5638 5635 5632 5629 5627 5625 5622 5619 5617
5635 5637 5638 5640 5642 5645 5646 5647 5649 5655 5663 5670 5671 5671 5671 5671 5670 5667 5671 5683 5689 5687 5687 5688 5683 5681 5684 5685 5684 5685 5687 5688 5690 5691 5688 5686 5687 5687 5686 5686 5686 5686 5685 5684 5684 5683 5682 5682 5681 5680 5679 5678 5677 5676 5674 5674 5673 5671 5671 5670 5668 5666 5664 5661 5659 5656 5653 5650 5648 5644 5641 5639 5636 5634 5632 5630 5628 5627 5624 5620 5617 5615 5613 5610 5607 5605
5629 5630 5631 5634 5637 5639 5641 5642 5643 5648 5658 5664 5663 5662 5661 5661 5662 5665 5672 5676 5676 5676 5679 5678 5674 5674 5676 5676 5676 5677 5678 5679 5680 5682 5681 5679 5679 5679 5678 5678 5678 5677 5677 5676 5676 5675 5675 5674 5674 5673 5672 5671 5669 5668 5666 5665 5664 5662 5661 5660 5658 5656 5654 5651 5648 5645 5643 5640 5637 5634 5631 5628 5625 5623 5620 5618 5616 5614 5613 5609 5605 5603 5600 5597 5594 5592
5623 5623 5624 5628 5632 5633 5634 5634 5635 5644 5655 5658 5655 5652 5653 5655 5659 5663 5665 5664 5664 5666 5667 5666 5666 5665 5666 5668 5670 5669 5670 5671 5672 5673 5673 5672 5672 5672 5671 5670 5669 5668 5668 5667 5667 5667 5667 5666 5665 5665 5663 5662 5660 5659 5657 5655 5653 5652 5650 5649 5648 5646 5643 5640 5638 5635 5632 5630 5627 5624 5621 5618 5615 5612 5609 5607 5604 5602 5600 5598 5594 5591 5588 5584 5581 5579
5614 5615 5617 5622 5626 5625 5625 5627 5633 5643 5650 5650 5648 5647 5648 5650 5653 5652 5651 5653 5654 5655 5656 5658 5657 5656 5657 5660 5662 5661 5663 5664 5664 5665 5666 5665 5665 5665 5664 5663 5662 5660 5660 5659 5658 5657 5657 5656 5656 5655 5653 5652 5650 5648 5647 5645 5643 5641 5640 5639 5637 5635 5633 5630 5627 5625 5622 5619 5617 5614 5611 5608 5605 5601 5598 5595 5592 5590 5587 5585 5582 5579 5576 5572 5568 5564
5606 5609 5612 5616 5618 5618 5619 5625 5632 5639 5642 5641 5641 5641 5640 5642 5642 5641 5641 5644 5645 5646 5648 5650 5650 5649 5650 5651 5652 5654 5656 5656 5656 5658 5657 5657 5658 5657 5656 5655 5654 5653 5652 5650 5649 5648 5647 5646 5645 5644 5643 5641 5639 5638 5636 5634 5633 5631 5629 5628 5627 5625 5623 5620 5617 5615 5612 5609 5606 5603 5600 5597 5594 5591 5587 5584 5580 5578 5575 5573 5570 5568 5564 5560 5555 5551
5600 5604 5606 5608 5610 5611 5614 5620 5627 5631 5633 5634 5633 5632 5632 5634 5635 5634 5633 5635 5636 5638 5640 5642 5643 5643 5643 5643 5644 5646 5646 5647 5648 5649 5649 5650 5650 5649 5648 5648 5646 5644 5643 5641 5640 5639 5637 5635 5634 5633 5632 5631 5629 5627 5626 5624 5622 5621 5619 5618 5616 5614 5612 5609 5607 5604 5601 5598 5595 5592 5589 5587 5584 5580 5577 5573 5569 5566 5563 5560 5557 5555 5553 5548 5543 5539
5593 5597 5598 5599 5601 5604 5608 5616 5621 5623 5625 5625 5625 5626 5626 5626 5627 5626 5626 5627 5628 5630 5632 5633 5635 5636 5636 5636 5637 5636 5637 5638 5639 5639 5640 5641 5640 5640 5640 5639 5637 5636 5634 5632 5631 5629 5627 5625 5624 5622 5622 5620 5618 5617 5615 5613 5612 5611 5609 5607 5605 5603 5601 5598 5596 5593 5590 5587 5584 5581 5578 5575 5573 5570 5567 5563 5559 5555 5552 5549 5545 5542 5541 5537 5531 5526
5587 5589 5590 5592 5595 5598 5605 5612 5615 5615 5616 5617 5618 5619 5619 5618 5618 5618 5619 5620 5621 5623 5624 5625 5626 5626 5627 5627 5627 5627 5628 5629 5629 5629 5629 5629 5629 5629 5629 5628 5627 5626 5625 5623 5622 5620 5618 5616 5614 5612 5611 5610 5608 5607 5605 5603 5602 5600 5599 5597 5595 5592 5590 5587 5585 5582 5580 5577 5574 5570 5567 5565 5562 5559 5557 5553 5549 5546 5542 5538 5534 5531 5529 5525 5518 5512
5580 5582 5585 5588 5590 5592 5599 5606 5608 5607 5608 5610 5611 5612 5611 5609 5609 5610 5611 5613 5614 5614 5615 5615 5615 5616 5616 5616 5617 5619 5619 5620 5620 5620 5619 5618 5618 5617 5617 5616 5616 5615 5614 5613 5611 5609 5608 5606 5604 5602 5601 5599 5598 5597 5595 5593 5592 5590 5588 5586 5584 5581 5579 5577 5574 5572 5569 5566 5563 5560 5557 5554 5551 5547 5545 5542 5538 5535 5531 5527 5522 5518 5517 5516 5509 5500
5574 5577 5581 5582 5582 5585 5594 5600 5599 5597 5598 5602 5603 5603 5602 5600 5599 5600 5602 5603 5604 5604 5604 5605 5605 5606 5607 5608 5609 5609 5609 5609 5609 5609 5609 5608 5607 5606 5606 5606 5605 5604 5604 5602 5600 5599 5598 5596 5594 5593 5591 5590 5588 5586 5584 5583 5582 5580 5578 5575 5573 5571 5569 5566 5564 5562 5558 5555 5552 5549 5546 5543 5540 5536 5533 5529 5526 5523 5521 5518 5513 5507 5502 5502 5501 5494
5568 5572 5575 5574 5574 5579 5585 5588 5585 5584 5588 5592 5593 5593 5593 5592 5591 5591 5593 5594 5595 5596 5596 5597 5598 5599 5600 5600 5600 5599 5599 5599 5598 5598 5599 5598 5597 5597 5596 5596 5595 5594 5593 5592 5591 5589 5588 5586 5586 5584 5582 5581 5579 5577 5575 5573 5572 5570 5567 5565 5563 5561 5559 5556 5553 5551 5548 5545 5541 5538 5535 5532 5528 5525 5521 5517 5513 5509 5507 5506 5505 5502 5494 5487 5484 5483